Location: Overspoor
(51.4747°N, 5.6641°E)
Time: 12:55:57
(UTC+02:00)

YUBILEINY - Pass Details

Date: 04 July 2022
Orbit: 1478 x 1509 km, 82.5° (Epoch: 08 August)

Event Time Altitude Azimuth Distance (km) Brightness Sun altitude
Rises 03:23:35 0° 347° (NNW) 4,657 ? -12.3°
Reaches altitude 10° 03:27:21 10° 1° (N) 3,669 ? -12.1°
Maximum altitude 03:34:10 24° 53° (NE) 2,719 ? -11.6°
Drops below altitude 10° 03:40:55 10° 104° (ESE) 3,638 ? -11.2°
Sets 03:44:36 0° 118° (ESE) 4,609 ? -10.9°
